CW9236 Weather Reports


Display with metric or nautical units.
time (UTC)temp
F
wind
direction
speed
MPH
gust
MPH
rain 1hr
in
rain 24hr
in
rain mn
in
humidity
%
barometer
mb
20260509064006 74 73 0.0 2.0 0.00 0.00 0.00 93 1010.3
20260509063508 74 80 0.0 2.0 0.00 0.00 0.00 93 1010.4
20260509063013 74 80 0.0 2.0 0.00 0.00 0.00 93 1010.4
20260509062509 74 77 0.0 2.0 0.00 0.00 0.00 93 1010.5
20260509062009 74 87 0.0 1.0 0.00 0.00 0.00 93 1010.6
20260509061522 74 88 0.0 2.0 0.00 0.00 0.00 93 1010.7
20260509061007 74 86 0.0 2.0 0.00 0.00 0.00 93 1010.7
20260509060508 73 85 0.0 2.0 0.00 0.00 0.00 93 1010.8
20260509060025 73 84 0.0 2.0 0.00 0.00 0.00 93 1010.9
20260509055510 73 84 0.0 2.0 0.00 0.00 0.00 93 1010.9
20260509055012 73 76 0.0 2.0 0.00 0.00 0.00 93 1010.9
20260509054510 73 83 0.0 3.0 0.00 0.00 0.00 93 1010.7
20260509054005 73 74 0.0 3.0 0.00 0.00 0.00 93 1010.7
20260509053507 73 87 1.0 4.0 0.00 0.00 0.00 93 1010.7
20260509053016 73 87 0.0 4.0 0.00 0.00 0.00 93 1010.7
20260509052508 73 80 0.0 2.0 0.00 0.00 0.00 93 1010.8
20260509052008 73 71 0.0 3.0 0.00 0.00 0.00 93 1010.8
20260509051521 73 86 0.0 3.0 0.00 0.00 0.00 93 1010.7
20260509051009 73 96 0.0 3.0 0.00 0.00 0.00 93 1010.7
20260509050509 73 82 0.0 4.0 0.00 0.00 0.00 93 1010.7
20260509050035 73 88 1.0 4.0 0.00 0.00 0.00 93 1010.7
20260509045512 73 72 1.0 3.0 0.00 0.00 0.00 93 1010.7
20260509045011 73 91 1.0 3.0 0.00 0.00 0.00 93 1010.9
20260509044511 73 79 1.0 3.0 0.00 0.00 0.00 93 1010.9
20260509044012 73 86 1.0 3.0 0.00 0.00 0.00 93 1010.9
20260509043507 73 79 0.0 4.0 0.00 0.00 0.00 93 1010.9
20260509043018 73 88 1.0 4.0 0.00 0.00 0.00 93 1010.9
20260509042509 73 88 1.0 3.0 0.00 0.00 0.00 93 1010.9
20260509042008 73 97 1.0 3.0 0.00 0.00 0.00 93 1011.0
20260509041522 73 86 1.0 3.0 0.00 0.00 0.00 92 1011.0
20260509041007 73 82 1.0 3.0 0.00 0.00 0.00 92 1010.9
20260509040507 73 81 0.0 3.0 0.00 0.00 0.00 92 1010.7
20260509040023 73 81 0.0 3.0 0.00 0.00 0.00 92 1010.6
20260509035507 73 83 0.0 2.0 0.00 0.00 0.00 92 1010.5
20260509035009 73 84 0.0 7.0 0.00 0.00 0.00 92 1010.4
20260509034514 73 85 1.0 7.0 0.00 0.00 0.00 92 1010.4
20260509034007 73 84 2.0 6.0 0.00 0.00 0.00 92 1010.4
20260509033507 73 85 2.0 6.0 0.00 0.00 0.00 92 1010.2
20260509033018 73 83 2.0 4.0 0.00 0.00 0.00 92 1010.1
20260509032512 73 90 1.0 7.0 0.00 0.00 0.00 92 1010.2
20260509032011 73 71 1.0 8.0 0.00 0.00 0.00 92 1010.3
20260509031526 73 90 2.0 8.0 0.00 0.00 0.00 92 1010.3
20260509031012 73 69 3.0 8.0 0.00 0.00 0.00 91 1010.3
20260509030511 73 82 3.0 6.0 0.00 0.00 0.00 91 1010.3
20260509030036 73 83 2.0 7.0 0.00 0.00 0.00 91 1010.2
20260509025507 73 86 2.0 7.0 0.00 0.00 0.00 91 1010.3
20260509025007 73 91 0.0 6.0 0.00 0.00 0.00 91 1010.3
20260509023509 73 94 2.0 6.0 0.00 0.00 0.00 91 1009.9
20260509023027 73 105 3.0 6.0 0.00 0.00 0.00 91 1009.8
20260509022511 73 71 2.0 7.0 0.00 0.00 0.00 91 1009.9
20260509022009 73 73 1.0 7.0 0.00 0.00 0.00 91 1009.9
20260509021526 73 88 3.0 7.0 0.00 0.00 0.00 91 1009.8
20260509021010 73 91 2.0 6.0 0.00 0.00 0.00 90 1009.7
20260509020514 73 79 2.0 7.0 0.00 0.00 0.00 90 1009.7
20260509020027 73 81 2.0 7.0 0.00 0.00 0.00 90 1009.6
20260509015507 73 87 2.0 5.0 0.00 0.00 0.00 90 1009.7
20260509015009 73 85 2.0 5.0 0.00 0.00 0.00 90 1009.8
20260509014010 73 86 1.0 4.0 0.00 0.00 0.00 90 1009.7
20260509013509 73 86 2.0 4.0 0.00 0.00 0.00 90 1009.6
20260509012510 73 86 1.0 6.0 0.00 0.00 0.00 90 1009.7
20260509012012 73 85 2.0 6.0 0.00 0.00 0.00 90 1009.7
20260509011526 73 78 2.0 6.0 0.00 0.00 0.00 90 1009.7
20260509011012 73 79 1.0 8.0 0.00 0.00 0.00 90 1009.6
20260509010513 73 85 2.0 8.0 0.00 0.00 0.00 90 1009.4
20260509010026 73 79 2.0 6.0 0.00 0.00 0.00 90 1009.4
20260509005508 73 90 1.0 4.0 0.00 0.00 0.00 90 1009.5
20260509005010 73 96 2.0 6.0 0.00 0.00 0.00 89 1009.4
20260509004531 73 74 2.0 6.0 0.00 0.00 0.00 89 1009.4
20260509004011 73 83 2.0 6.0 0.00 0.00 0.00 89 1009.4
20260509003511 73 84 2.0 5.0 0.00 0.00 0.00 89 1009.4
20260509003021 74 84 2.0 7.0 0.00 0.00 0.00 89 1009.4
20260509002511 74 83 2.0 8.0 0.00 0.00 0.00 89 1009.3
20260509002011 74 86 3.0 8.0 0.00 0.00 0.00 89 1009.2
20260509001526 74 83 3.0 6.0 0.00 0.00 0.00 89 1009.2
20260509001009 74 90 2.0 6.0 0.00 0.00 0.00 89 1009.3
20260509000510 74 87 2.0 6.0 0.00 0.00 0.00 88 1009.4
20260509000035 74 79 1.0 4.0 0.00 0.00 0.00 88 1009.5
20260508235510 74 85 1.0 6.0 0.00 0.00 0.00 88 1009.5
20260508235007 74 87 2.0 6.0 0.00 0.00 0.00 88 1009.6
20260508234521 74 82 2.0 7.0 0.00 0.00 0.00 88 1009.5
20260508234007 74 84 3.0 8.0 0.00 0.00 0.00 88 1009.5
20260508233510 74 81 2.0 9.0 0.00 0.00 0.00 88 1009.6
20260508233025 74 81 2.0 9.0 0.00 0.00 0.00 88 1009.7
20260508232508 74 84 2.0 7.0 0.00 0.00 0.00 88 1009.7
20260508232011 74 84 2.0 6.0 0.00 0.00 0.00 88 1009.7
20260508232008 74 76 2.0 6.0 0.00 0.00 0.00 88 1009.7
20260508231526 74 67 2.0 6.0 0.00 0.00 0.00 88 1009.7
20260508231008 74 98 2.0 4.0 0.00 0.00 0.00 88 1009.7
20260508230510 74 90 1.0 7.0 0.00 0.00 0.00 87 1009.8
20260508230021 75 92 3.0 7.0 0.00 0.00 0.00 87 1009.7
20260508225507 75 94 2.0 5.0 0.00 0.00 0.00 86 1009.6
20260508225011 75 94 2.0 5.0 0.00 0.00 0.00 86 1009.6
20260508224524 75 86 2.0 5.0 0.00 0.00 0.00 86 1009.5
20260508224004 75 86 2.0 7.0 0.00 0.00 0.00 86 1009.6
20260508223504 75 85 2.0 8.0 0.00 0.00 0.00 86 1009.6
20260508223009 75 88 2.0 8.0 0.00 0.00 0.00 85 1009.6
20260508222505 75 90 2.0 8.0 0.00 0.00 0.00 85 1009.6
20260508222008 75 94 2.0 10.0 0.00 0.00 0.00 85 1009.7
20260508221518 76 74 3.0 10.0 0.00 0.00 0.00 84 1009.7
20260508221008 76 100 3.0 9.0 0.00 0.00 0.00 85 1009.7
20260508214506 75 94 2.0 7.0 0.00 0.00 0.00 85 1009.7
20260508214002 75 76 3.0 7.0 0.00 0.00 0.00 85 1009.7
20260508212513 75 93 1.0 4.0 0.00 0.00 0.00 86 1010.1
20260508212007 75 85 1.0 4.0 0.00 0.00 0.00 85 1010.4
20260508211518 75 85 0.0 4.0 0.00 0.00 0.00 85 1010.5
20260508211008 75 89 1.0 4.0 0.00 0.00 0.00 84 1010.4
20260508210508 76 96 0.0 4.0 0.00 0.00 0.00 83 1010.2
20260508210025 76 89 1.0 6.0 0.00 0.00 0.00 83 1010.2
20260508205509 76 83 1.0 6.0 0.00 0.00 0.00 83 1010.2
20260508205013 76 83 2.0 6.0 0.00 0.00 0.00 84 1010.1
20260508204506 76 74 2.0 4.0 0.00 0.00 0.00 83 1010.2
20260508204005 76 92 1.0 4.0 0.00 0.00 0.00 83 1010.4
20260508203504 76 67 0.0 3.0 0.00 0.00 0.00 84 1010.5
20260508203012 76 86 1.0 3.0 0.00 0.00 0.00 83 1010.5
20260508202505 76 78 0.0 3.0 0.00 0.00 0.00 83 1010.6
20260508202008 75 86 1.0 4.0 0.00 0.00 0.00 84 1010.7
20260508201524 75 80 2.0 4.0 0.00 0.00 0.00 84 1010.3
20260508201009 75 74 1.0 4.0 0.00 0.00 0.00 85 1010.3
20260508200507 75 84 1.0 3.0 0.00 0.00 0.00 84 1010.7
20260508200023 75 84 1.0 4.0 0.00 0.00 0.00 85 1010.9
20260508195507 75 84 1.0 4.0 0.00 0.00 0.00 85 1010.6
20260508195009 74 86 0.0 6.0 0.00 0.00 0.00 86 1010.8
20260508194510 74 59 1.0 6.0 0.00 0.00 0.00 85 1010.7
20260508194004 74 73 0.0 3.0 0.00 0.00 0.00 86 1010.9
20260508193505 73 83 1.0 4.0 0.00 0.00 0.00 85 1011.0
20260508193019 73 90 1.0 4.0 0.00 0.00 0.00 85 1011.0
20260508192512 74 83 1.0 2.0 0.00 0.00 0.00 85 1011.2
20260508192007 74 82 0.0 1.0 0.00 0.00 0.00 83 1011.5
20260508191521 73 81 0.0 2.0 0.00 0.00 0.00 83 1011.8
20260508191008 73 80 0.0 3.0 0.00 0.00 0.00 82 1011.9
20260508190509 73 77 0.0 3.0 0.00 0.00 0.00 81 1011.7
20260508190029 74 249 0.0 3.0 0.00 0.00 0.00 82 1011.7
20260508185508 74 251 1.0 3.0 0.00 0.00 0.00 82 1011.7
20260508185004 73 252 0.0 3.0 0.00 0.00 0.00 83 1011.7
20260508184511 73 252 1.0 4.0 0.00 0.00 0.00 82 1011.8
20260508184009 73 91 1.0 4.0 0.00 0.00 0.00 82 1011.7
20260508183506 73 87 1.0 2.0 0.00 0.00 0.00 82 1011.6
20260508183016 73 91 0.0 3.0 0.00 0.00 0.00 82 1011.7
20260508182513 73 84 0.0 6.0 0.00 0.00 0.00 83 1011.7
20260508182010 72 90 3.0 6.0 0.00 0.00 0.00 82 1011.8
20260508181535 73 78 2.0 4.0 0.00 0.00 0.00 82 1011.8
20260508181018 73 86 1.0 4.0 0.00 0.00 0.00 83 1011.8
20260508180510 72 93 1.0 4.0 0.00 0.00 0.00 83 1011.8
20260508180026 72 82 2.0 6.0 0.00 0.00 0.00 84 1011.7
20260508175508 72 62 2.0 7.0 0.00 0.00 0.00 83 1011.9
20260508175005 72 87 3.0 7.0 0.00 0.00 0.00 83 1011.9
20260508174513 72 91 2.0 4.0 0.00 0.00 0.00 83 1012.0
20260508174006 71 90 0.0 3.0 0.00 0.00 0.00 84 1012.3
20260508173508 71 80 0.0 3.0 0.00 0.00 0.00 84 1012.4
20260508173034 71 80 0.0 4.0 0.00 0.00 0.00 84 1012.4
20260508172506 71 79 2.0 4.0 0.00 0.00 0.00 85 1012.5
20260508172010 71 78 0.0 3.0 0.00 0.00 0.00 85 1012.6
20260508171526 70 74 1.0 3.0 0.00 0.00 0.00 84 1012.7
20260508171010 70 84 1.0 6.0 0.00 0.00 0.00 84 1012.7
20260508170507 70 88 2.0 5.0 0.00 0.00 0.00 84 1012.8
20260508170027 70 96 1.0 4.0 0.00 0.00 0.00 84 1012.8
20260508165509 70 82 1.0 7.0 0.00 0.00 0.00 85 1012.8
20260508165009 70 31 2.0 7.0 0.00 0.00 0.00 84 1012.7
20260508164517 70 80 1.0 4.0 0.00 0.00 0.00 84 1012.8
20260508164009 70 85 2.0 8.0 0.00 0.00 0.00 84 1012.8
20260508163508 70 96 1.0 8.0 0.00 0.00 0.00 83 1012.8
20260508163022 70 63 1.0 5.0 0.00 0.00 0.00 85 1012.8
20260508162508 70 90 3.0 5.0 0.00 0.00 0.00 85 1012.6
20260508162007 69 58 2.0 8.0 0.00 0.00 0.00 85 1012.7
20260508161529 69 59 3.0 8.0 0.00 0.00 0.00 85 1012.8
20260508161010 69 88 2.0 8.0 0.00 0.00 0.00 85 1012.8
20260508160508 69 104 4.0 8.0 0.00 0.00 0.00 85 1013.0
20260508160030 69 76 2.0 5.0 0.00 0.00 0.00 84 1013.2
20260508155506 69 35 1.0 6.0 0.00 0.00 0.00 85 1013.2
20260508155008 69 75 3.0 6.0 0.00 0.00 0.00 85 1013.2
20260508154516 69 109 1.0 4.0 0.00 0.00 0.00 85 1013.2
20260508154011 69 82 1.0 4.0 0.00 0.00 0.00 85 1013.3
20260508153507 69 94 1.0 5.0 0.00 0.00 0.00 85 1013.4
20260508153023 69 68 1.0 5.0 0.00 0.00 0.00 85 1013.4
20260508152509 68 113 0.0 4.0 0.00 0.00 0.00 84 1013.4
20260508152007 68 177 1.0 4.0 0.00 0.00 0.00 84 1013.5
20260508151530 68 75 0.0 4.0 0.00 0.00 0.00 84 1013.7
20260508151015 68 82 1.0 4.0 0.00 0.00 0.00 84 1013.7
20260508150518 68 90 1.0 6.0 0.00 0.00 0.00 84 1013.5
20260508150026 68 107 1.0 7.0 0.00 0.00 0.00 83 1013.6
20260508145507 68 94 1.0 7.0 0.00 0.00 0.00 83 1013.5
20260508145007 68 199 2.0 7.0 0.00 0.00 0.00 83 1013.6
20260508144521 68 92 1.0 5.0 0.00 0.00 0.00 83 1013.6
20260508144008 68 89 1.0 5.0 0.00 0.00 0.00 83 1013.6
20260508143511 68 90 0.0 4.0 0.00 0.00 0.00 83 1013.7
20260508143026 68 113 0.0 4.0 0.00 0.00 0.00 83 1013.7
20260508142511 68 101 1.0 4.0 0.00 0.00 0.00 83 1013.6
20260508142012 69 250 0.0 4.0 0.00 0.00 0.00 83 1013.7
20260508141528 69 277 0.0 6.0 0.00 0.00 0.00 83 1013.7
20260508141011 68 277 1.0 6.0 0.00 0.00 0.00 83 1013.9
20260508140510 68 106 0.0 4.0 0.00 0.00 0.00 83 1013.7
20260508140018 68 117 1.0 4.0 0.00 0.00 0.00 83 1013.6
20260508135508 68 132 1.0 4.0 0.00 0.00 0.00 84 1013.6
20260508135008 68 150 0.0 4.0 0.00 0.00 0.00 84 1013.7
20260508134521 68 245 0.0 2.0 0.00 0.00 0.00 84 1013.6
20260508134010 68 245 0.0 3.0 0.00 0.00 0.00 84 1013.5
20260508133512 68 148 0.0 3.0 0.00 0.00 0.00 84 1013.5
20260508133026 68 118 0.0 2.0 0.00 0.00 0.00 84 1013.6
20260508132511 68 74 0.0 2.0 0.00 0.00 0.00 84 1013.6
20260508132011 68 78 0.0 2.0 0.00 0.00 0.00 85 1013.6
20260508131528 68 76 0.0 3.0 0.00 0.00 0.00 85 1013.4
20260508131012 68 98 0.0 6.0 0.00 0.00 0.00 85 1013.5
20260508130508 68 67 1.0 6.0 0.00 0.00 0.00 85 1013.2
20260508130024 68 278 0.0 3.0 0.00 0.00 0.00 86 1013.3
20260508125507 67 278 1.0 3.0 0.00 0.00 0.00 85 1013.4
20260508125013 67 277 0.0 2.0 0.00 0.00 0.00 85 1013.4
20260508124523 67 277 0.0 6.0 0.00 0.00 0.00 85 1013.4
20260508124009 67 101 0.0 6.0 0.00 0.00 0.00 85 1013.1
20260508123510 67 86 2.0 5.0 0.00 0.00 0.00 86 1013.1
20260508123028 67 82 2.0 5.0 0.00 0.00 0.00 85 1013.2
20260508122508 67 80 0.0 4.0 0.00 0.00 0.00 85 1013.1
20260508122017 67 98 1.0 4.0 0.00 0.00 0.00 85 1013.1
20260508121527 67 278 2.0 3.0 0.00 0.00 0.00 85 1013.1
20260508121009 67 278 0.0 3.0 0.00 0.00 0.00 85 1013.3
20260508120509 67 278 1.0 3.0 0.00 0.00 0.00 85 1013.4
20260508120020 67 278 1.0 3.0 0.00 0.00 0.00 84 1013.5
20260508115511 67 278 0.0 3.0 0.00 0.00 0.00 84 1013.7
20260508115007 67 278 0.0 3.0 0.00 0.00 0.00 83 1013.9
20260508114525 68 285 0.0 2.0 0.00 0.00 0.00 83 1014.0
20260508114008 68 286 0.0 2.0 0.00 0.00 0.00 83 1014.0
20260508113509 68 284 0.0 2.0 0.00 0.00 0.00 83 1014.2
20260508113025 68 284 0.0 2.0 0.00 0.00 0.00 83 1014.1
20260508112510 68 283 0.0 3.0 0.00 0.00 0.00 83 1014.0
20260508112010 68 284 0.0 3.0 0.00 0.00 0.00 83 1014.1
20260508111518 68 287 0.0 1.0 0.00 0.00 0.00 84 1013.8
20260508111005 68 124 0.0 1.0 0.00 0.00 0.00 84 1013.5
20260508110509 68 86 0.0 2.0 0.00 0.00 0.00 84 1013.2
20260508110017 68 84 0.0 2.0 0.00 0.00 0.00 84 1013.0
20260508105506 68 83 0.0 2.0 0.00 0.00 0.00 84 1012.8
20260508105013 68 86 0.0 4.0 0.00 0.00 0.00 83 1012.8
20260508104508 68 73 0.0 8.0 0.00 0.00 0.00 83 1012.9
20260508104006 68 84 4.0 8.0 0.00 0.00 0.00 83 1012.7
20260508103507 68 65 3.0 7.0 0.00 0.00 0.00 83 1012.4
20260508103018 68 83 3.0 6.0 0.00 0.00 0.00 82 1012.7
20260508101521 68 93 1.0 3.0 0.00 0.00 0.00 81 1013.4
20260508101008 68 101 0.0 2.0 0.00 0.00 0.00 81 1013.5
20260508100024 68 105 0.0 2.0 0.00 0.00 0.00 80 1013.7
20260508095002 68 84 1.0 4.0 0.00 0.00 0.00 80 1013.0
20260508094512 68 75 1.0 5.0 0.00 0.00 0.00 80 1012.9
20260508094008 68 284 0.0 6.0 0.00 0.00 0.00 80 1013.3
20260508093507 68 283 0.0 6.0 0.00 0.00 0.00 79 1013.6
20260508092507 68 98 0.0 3.0 0.00 0.00 0.00 79 1013.3
20260508092010 68 95 0.0 3.0 0.00 0.00 0.00 79 1013.4
20260508091007 68 116 0.0 5.0 0.00 0.00 0.00 79 1013.0
20260508090508 68 80 1.0 8.0 0.00 0.00 0.00 79 1012.7
20260508090024 68 71 2.0 8.0 0.00 0.00 0.00 79 1012.3
20260508085508 68 87 2.0 4.0 0.00 0.00 0.00 79 1012.4
20260508085004 68 95 2.0 3.0 0.00 0.00 0.00 79 1012.7
20260508084512 68 90 1.0 3.0 0.00 0.00 0.00 79 1012.8
20260508084009 68 94 1.0 3.0 0.00 0.00 0.00 79 1012.9
20260508083507 68 71 1.0 3.0 0.00 0.00 0.00 78 1013.1
20260508083019 68 98 0.0 2.0 0.00 0.00 0.00 79 1013.4
20260508082508 68 83 0.0 2.0 0.00 0.00 0.00 79 1013.4
20260508082008 68 84 0.0 3.0 0.00 0.00 0.00 79 1013.3
20260508081529 68 66 0.0 3.0 0.00 0.00 0.00 78 1013.4
20260508081009 68 94 0.0 2.0 0.00 0.00 0.00 79 1013.3
20260508080515 68 98 0.0 4.0 0.00 0.00 0.00 79 1013.1
20260508075506 68 70 1.0 4.0 0.00 0.00 0.00 78 1013.1
20260508075007 68 281 1.0 4.0 0.00 0.00 0.00 79 1013.3
20260508074513 68 281 0.0 4.0 0.00 0.00 0.00 78 1013.4
20260508074006 68 281 1.0 3.0 0.00 0.00 0.00 79 1013.7
20260508073508 68 281 0.0 3.0 0.00 0.00 0.00 79 1013.8
20260508073020 68 281 0.0 3.0 0.00 0.00 0.00 79 1013.9
20260508072510 68 281 1.0 4.0 0.00 0.00 0.00 78 1013.8
20260508072011 68 281 0.0 6.0 0.00 0.00 0.00 78 1013.9
20260508071527 68 311 1.0 6.0 0.00 0.00 0.00 78 1014.0
20260508071011 68 285 0.0 4.0 0.00 0.00 0.00 79 1014.0
20260508070511 68 248 0.0 4.0 0.00 0.00 0.00 79 1013.9
20260508070027 68 150 0.0 2.0 0.00 0.00 0.00 78 1013.7
20260508065508 68 126 0.0 3.0 0.00 0.00 0.00 78 1013.9
20260508065006 68 292 0.0 4.0 0.00 0.00 0.00 78 1014.1